Powrót do katalogu

STARLINK-35930

AktywnyŁącznośćVLEO
NORAD 66599·PAYLOAD·🇺🇸 United States

Wystrzelony Nov 22, 2025 z Cape Canaveral Space Force Station

Loading…

Następne Przeloty (najbliższe 24 godziny)

TLE

ŚwieżeSource: CelesTrak SupGP

Epoka: Sep 15, 2026, 03:27 UTC

1 66599C 25270M   26258.14423611 -.00031675  00000+0 -11471-2 0  2583
2 66599  43.0005  66.1971 0001541 267.2959 356.4939 15.27598386    14

Śledź STARLINK-35930 w czasie rzeczywistym z AllMySat

Download on the App Store